Date String (YYYY-MM-DD hh:mm:ss) UTC,Instrument flags,absolute air pressure of the measurement (hPa),sample flow rate (lpm),inlet stack bypass flow (lpm),air temperature of the measurement (°C),ambient temperature measured by the external sensor (°C),aerosol sample conditioner tube jacket temperature (°C),OPC LED temperature (°C),internal box temperature (°C),relative humidity of the measurement (%),span deviation,mass concentration of particles derived from Lorenz-Mie calculation of OPC scattering (μg/m³),mass concentration of particles derived from Lorenz-Mie calculation of OPC scattering (μg/m³),mass concentration of particles derived from Lorenz-Mie calculation of OPC scattering (μg/m³)
DateTimeUTC,F1_M11,P_M11,Q1_M11,Q2_M11,T1_M11,T2_M11,T3_M11,T4_M11,T5_M11,U1_M11,ZSPAN_M11,X0_M11,X2_M11,X1_M11
2023-07-29 04:00:00,SystemResetWarning,0838.6,5.00,000.00,028.9,025.4,000.0,037.3,030.2,30.3,0000.0,0018.84,0004.17,0002.56
2023-07-29 04:01:00,SystemResetWarning,0838.6,5.00,000.00,028.9,025.8,000.0,037.3,030.2,30.0,0000.0,0017.91,0004.20,0002.57
2023-07-29 04:02:00,SystemResetWarning,0838.6,5.01,000.00,028.9,026.2,000.0,037.3,030.3,30.2,0000.0,0016.71,0004.25,0002.60
2023-07-29 04:03:00,SystemResetWarning,0838.6,5.00,000.00,028.9,026.6,000.0,037.3,030.4,30.2,0000.0,0015.34,0004.27,0002.61
2023-07-29 04:04:00,SystemResetWarning,0838.6,5.01,000.00,028.9,026.9,000.0,037.4,030.5,30.1,0000.0,0015.88,0004.33,0002.62
2023-07-29 04:05:00,SystemResetWarning,0838.6,5.00,000.00,029.0,027.2,000.0,037.4,030.6,29.9,0000.0,0015.84,0004.36,0002.63
2023-07-29 04:06:00,SystemResetWarning,0838.6,4.99,000.00,029.0,027.5,000.0,037.4,030.7,29.9,0000.0,0015.23,0004.35,0002.63
2023-07-29 04:07:00,SystemResetWarning,0838.6,5.00,000.00,029.0,027.7,000.0,037.4,030.7,29.8,0000.0,0014.53,0004.35,0002.64
2023-07-29 04:08:00,SystemResetWarning,0838.6,5.00,000.00,029.1,027.8,000.0,037.4,030.8,29.6,0000.0,0014.06,0004.34,0002.63
2023-07-29 04:09:00,SystemResetWarning,0838.6,5.00,000.00,029.1,028.0,000.0,037.5,030.8,30.3,0000.0,0013.29,0004.28,0002.61
2023-07-29 04:10:00,SystemResetWarning,0838.5,4.99,000.00,029.2,027.3,000.0,037.4,030.8,30.3,0000.0,0012.82,0004.21,0002.57
2023-07-29 04:11:00,SystemResetWarning,0838.4,5.01,000.00,029.1,025.8,000.0,037.3,030.6,29.8,0000.0,0012.84,0004.24,0002.57
2023-07-29 04:12:00,SystemResetWarning,0838.4,5.00,000.00,029.0,025.3,000.0,037.3,030.4,29.8,0000.0,0013.35,0004.30,0002.56
2023-07-29 04:13:00,SystemResetWarning,0838.4,5.00,000.00,029.0,025.5,000.0,037.3,030.2,30.2,0000.0,0014.93,0004.25,0002.55
2023-07-29 04:14:00,SystemResetWarning,0838.4,5.02,000.00,028.9,025.9,000.0,037.3,030.3,30.4,0000.0,0015.15,0004.20,0002.54
2023-07-29 04:15:00,SystemResetWarning,0838.5,5.00,000.00,028.9,026.3,000.0,037.3,030.4,30.3,0000.0,0014.34,0004.14,0002.52
2023-07-29 04:16:00,SystemResetWarning,0838.5,5.00,000.00,028.9,026.6,000.0,037.4,030.5,30.1,0000.0,0013.73,0004.09,0002.51
2023-07-29 04:17:00,SystemResetWarning,0838.5,5.01,000.00,028.9,027.0,000.0,037.4,030.6,29.9,0000.0,0013.45,0004.03,0002.54
2023-07-29 04:18:00,SystemResetWarning,0838.5,5.00,000.00,029.0,027.2,000.0,037.4,030.6,29.8,0000.0,0013.39,0004.00,0002.53
2023-07-29 04:19:00,SystemResetWarning,0838.4,4.99,000.00,029.0,027.5,000.0,037.4,030.7,29.7,0000.0,0013.23,0003.99,0002.53
2023-07-29 04:20:00,SystemResetWarning,0838.4,5.01,000.00,029.1,027.7,000.0,037.4,030.7,29.6,0000.0,0012.90,0004.00,0002.53
2023-07-29 04:21:00,SystemResetWarning,0838.4,5.00,000.00,029.1,027.8,000.0,037.4,030.8,29.6,0000.0,0012.94,0004.04,0002.54
2023-07-29 04:22:00,SystemResetWarning,0838.4,4.99,000.00,029.1,028.0,000.0,037.5,030.9,29.6,0000.0,0013.75,0004.11,0002.57
2023-07-29 04:23:00,SystemResetWarning,0838.3,4.99,000.00,029.2,027.0,000.0,037.4,030.8,29.6,0000.0,0014.15,0004.06,0002.59
2023-07-29 04:24:00,SystemResetWarning,0838.3,5.00,000.00,029.1,025.6,000.0,037.3,030.5,29.6,0000.0,0012.97,0004.09,0002.60
2023-07-29 04:25:00,SystemResetWarning,0838.3,5.00,000.00,029.0,025.3,000.0,037.3,030.3,29.6,0000.0,0012.20,0004.09,0002.61
2023-07-29 04:26:00,SystemResetWarning,0838.3,5.01,000.00,028.9,025.6,000.0,037.3,030.2,30.6,0000.0,0011.98,0004.07,0002.61
2023-07-29 04:27:00,SystemResetWarning,0838.3,5.01,000.00,028.9,025.9,000.0,037.3,030.3,31.7,0000.0,0012.15,0004.11,0002.62
2023-07-29 04:28:00,SystemResetWarning,0838.3,4.99,000.00,028.9,026.3,000.0,037.4,030.4,31.6,0000.0,0013.20,0004.15,0002.61
2023-07-29 04:29:00,SystemResetWarning,0838.3,5.00,000.00,028.9,026.7,000.0,037.4,030.5,31.5,0000.0,0013.24,0004.16,0002.61
2023-07-29 04:30:00,SystemResetWarning,0838.3,5.00,000.00,029.0,027.0,000.0,037.4,030.6,31.7,0000.0,0014.06,0004.19,0002.62
2023-07-29 04:31:00,SystemResetWarning,0838.3,5.00,000.00,029.0,027.3,000.0,037.4,030.6,31.6,0000.0,0014.36,0004.22,0002.64
2023-07-29 04:32:00,SystemResetWarning,0838.3,4.99,000.00,029.0,027.5,000.0,037.4,030.7,31.4,0000.0,0015.44,0004.22,0002.67
2023-07-29 04:33:00,SystemResetWarning,0838.3,4.99,000.00,029.1,027.7,000.0,037.4,030.7,31.4,0000.0,0014.85,0004.21,0002.69
2023-07-29 04:34:00,SystemResetWarning,0838.3,5.00,000.00,029.1,027.8,000.0,037.4,030.8,31.2,0000.0,0014.25,0004.22,0002.70
2023-07-29 04:35:00,SystemResetWarning,0838.3,5.01,000.00,029.1,028.0,000.0,037.5,030.8,30.9,0000.0,0014.67,0004.25,0002.71
2023-07-29 04:36:00,SystemResetWarning,0838.3,5.00,000.00,029.2,028.1,000.0,037.5,030.9,30.7,0000.0,0015.48,0004.27,0002.71
2023-07-29 04:37:00,SystemResetWarning,0838.3,5.01,000.00,029.2,028.2,000.0,037.5,030.9,30.8,0000.0,0016.21,0004.33,0002.71
2023-07-29 04:38:00,SystemResetWarning,0838.3,4.99,000.00,029.2,027.0,000.0,037.5,030.8,31.0,0000.0,0016.51,0004.32,0002.71
2023-07-29 04:39:00,SystemResetWarning,0838.2,5.00,000.00,029.2,025.6,000.0,037.4,030.6,31.2,0000.0,0015.97,0004.27,0002.71
2023-07-29 04:40:00,SystemResetWarning,0838.2,5.02,000.00,029.1,025.4,000.0,037.3,030.4,31.5,0000.0,0016.91,0004.27,0002.73
2023-07-29 04:41:00,SystemResetWarning,0838.2,4.99,000.00,029.0,025.6,000.0,037.4,030.3,31.8,0000.0,0016.89,0004.28,0002.73
2023-07-29 04:42:00,SystemResetWarning,0838.2,4.98,000.00,029.0,026.0,000.0,037.4,030.3,32.1,0000.0,0016.98,0004.26,0002.72
2023-07-29 04:43:00,SystemResetWarning,0838.2,5.00,000.00,029.0,026.4,000.0,037.4,030.4,32.7,0000.0,0015.87,0004.24,0002.70
2023-07-29 04:44:00,SystemResetWarning,0838.2,5.01,000.00,029.0,026.7,000.0,037.4,030.5,33.1,0000.0,0015.86,0004.24,0002.68
2023-07-29 04:45:00,SystemResetWarning,0838.3,5.01,000.00,029.0,027.0,000.0,037.4,030.6,33.0,0000.0,0015.81,0004.19,0002.66
2023-07-29 04:46:00,SystemResetWarning,0838.3,4.99,000.00,029.0,027.3,000.0,037.4,030.6,32.7,0000.0,0016.19,0004.15,0002.66
2023-07-29 04:47:00,SystemResetWarning,0838.3,4.99,000.00,029.0,027.5,000.0,037.5,030.7,32.4,0000.0,0016.27,0004.14,0002.65
2023-07-29 04:48:00,SystemResetWarning,0838.2,5.00,000.00,029.1,027.7,000.0,037.5,030.8,32.2,0000.0,0015.59,0004.12,0002.67
2023-07-29 04:49:00,SystemResetWarning,0838.2,5.00,000.00,029.1,027.8,000.0,037.5,030.8,32.5,0000.0,0015.14,0004.10,0002.68
2023-07-29 04:50:00,SystemResetWarning,0838.2,5.00,000.00,029.2,027.9,000.0,037.5,030.8,32.6,0000.0,0015.18,0004.12,0002.68
2023-07-29 04:51:00,SystemResetWarning,0838.2,5.00,000.00,029.2,028.0,000.0,037.5,030.9,32.9,0000.0,0014.33,0004.13,0002.67
2023-07-29 04:52:00,SystemResetWarning,0838.2,5.00,000.00,029.2,028.1,000.0,037.6,030.9,32.8,0000.0,0013.92,0004.10,0002.66
2023-07-29 04:53:00,SystemResetWarning,0838.2,4.99,000.00,029.3,027.8,000.0,037.5,030.9,32.6,0000.0,0013.97,0004.05,0002.64
2023-07-29 04:54:00,SystemResetWarning,0838.2,5.00,000.00,029.2,026.1,000.0,037.4,030.7,32.9,0000.0,0014.70,0004.07,0002.65
2023-07-29 04:55:00,SystemResetWarning,0838.2,5.02,000.00,029.1,025.3,000.0,037.4,030.4,33.0,0000.0,0015.36,0004.04,0002.64
2023-07-29 04:56:00,SystemResetWarning,0838.2,4.98,000.00,029.0,025.4,000.0,037.4,030.2,33.3,0000.0,0015.46,0004.04,0002.65
2023-07-29 04:57:00,SystemResetWarning,0838.2,4.99,000.00,029.0,025.7,000.0,037.4,030.3,33.3,0000.0,0015.13,0004.07,0002.66
2023-07-29 04:58:00,SystemResetWarning,0838.2,5.00,000.00,028.9,026.1,000.0,037.4,030.4,33.0,0000.0,0016.18,0004.10,0002.69
2023-07-29 04:59:00,SystemResetWarning,0838.1,5.01,000.00,029.0,026.5,000.0,037.4,030.5,32.9,0000.0,0016.36,0004.09,0002.70
